Tracking 18795 objects as of 21-August-2017
HD Live streaming from Space Station
objects crossing your sky now

ZY 3

Track ZY 3 now!
10-day predictions
ZY 3 is classified as:


NORAD ID: 38046
Int'l Code: 2012-001A
Perigee: 507.5 km
Apogee: 511.2 km
Inclination: 97.5 °
Period: 94.7 minutes
Semi major axis: 6880 km
RCS: 5.391 m2 (large)
Launch date: January 9, 2012
Source: People's Republic of China (PRC)
Launch site: Taiyaun Space Center, China (TSC)
Your satellite tracking list
Your tracking list is empty





NASA's NSSDC Master Catalog

Two Line Element Set (TLE):
1 38046U 12001A   17233.57568510  .00001017  00000-0  48771-4 0  9998
2 38046  97.5322 300.6655 0002735 130.9952   5.9659 15.21200841311892
Source of the keplerian elements: AFSPC